• In Hungary
  • List of Countries
  • For 7 days
  • Water Temperature
  • Satellite Maps
  • Weather Map
  • News
  • Weather Widgets
  • user-avatar
    Login

    Hourly Weather Polomia

    Today, 15 December, Friday

    Time Temperature Precipitation Wind Pressure Humidity
    00:00 0°C° 0 mm 4 mps 728 mmHg 78%
    01:00 +1°C° 0 mm 3 mps 727 mmHg 79%
    02:00 +1°C° 0 mm 3 mps 727 mmHg 79%
    03:00 +1°C° 0 mm 3 mps 726 mmHg 79%
    04:00 +2°C° 0 mm 2 mps 726 mmHg 79%
    05:00 +2°C° 0.4 mm 2 mps 725 mmHg 81%
    06:00 +2°C° 0.4 mm 2 mps 725 mmHg 83%
    07:00 +2°C° 0.4 mm 2 mps 724 mmHg 84%
    08:00 +2°C° 0.4 mm 2 mps 724 mmHg 85%
    09:00 +3°C° 0.4 mm 2 mps 724 mmHg 86%
    10:00 +3°C° 0.4 mm 2 mps 724 mmHg 86%
    11:00 +3°C° 0.3 mm 3 mps 725 mmHg 85%
    12:00 +3°C° 0.3 mm 4 mps 725 mmHg 84%
    13:00 +3°C° 0.3 mm 5 mps 725 mmHg 82%
    14:00 +2°C° 0 mm 5 mps 725 mmHg 80%
    15:00 +3°C° 0 mm 4 mps 726 mmHg 78%
    16:00 +1°C° 0 mm 4 mps 727 mmHg 76%
    17:00 +1°C° 0 mm 4 mps 727 mmHg 78%
    18:00 0°C° 0 mm 4 mps 727 mmHg 79%
    19:00 +1°C° 0 mm 3 mps 728 mmHg 81%
    20:00 0°C° 0 mm 3 mps 728 mmHg 82%
    21:00 0°C° 0 mm 3 mps 728 mmHg 83%
    22:00 0°C° 0 mm 3 mps 729 mmHg 84%
    23:00 +1°C° 0 mm 2 mps 729 mmHg 85%

    Tomorrow, 16 December, Saturday

    Time Temperature Precipitation Wind Pressure Humidity
    00:00 -1°C° 0 mm 2 mps 729 mmHg 85%
    01:00 -1°C° 0 mm 2 mps 729 mmHg 85%
    02:00 +1°C° 0 mm 1 mps 729 mmHg 86%
    03:00 +1°C° 0 mm 1 mps 729 mmHg 86%
    04:00 +1°C° 0 mm 1 mps 728 mmHg 86%
    05:00 +1°C° 0 mm 1 mps 728 mmHg 86%
    06:00 +1°C° 0 mm 1 mps 729 mmHg 86%
    07:00 +1°C° 0 mm 1 mps 729 mmHg 87%
    08:00 +2°C° 0 mm 1 mps 729 mmHg 85%
    09:00 +2°C° 0 mm 1 mps 730 mmHg 83%
    10:00 +3°C° 0 mm 1 mps 730 mmHg 81%
    11:00 +3°C° 0 mm 1 mps 731 mmHg 80%
    12:00 +3°C° 0 mm 2 mps 731 mmHg 79%
    13:00 +3°C° 0 mm 2 mps 731 mmHg 77%
    14:00 +4°C° 0 mm 1 mps 732 mmHg 81%
    15:00 +3°C° 0 mm 1 mps 732 mmHg 84%
    16:00 +2°C° 0 mm 1 mps 732 mmHg 88%
    17:00 +2°C° 0.1 mm 1 mps 733 mmHg 88%
    18:00 +2°C° 0.1 mm 1 mps 733 mmHg 89%
    19:00 +2°C° 0.1 mm 1 mps 734 mmHg 89%
    20:00 +1°C° 0 mm 1 mps 734 mmHg 89%
    21:00 -1°C° 0 mm 2 mps 735 mmHg 88%
    22:00 -1°C° 0 mm 2 mps 735 mmHg 88%
    23:00 -1°C° 0.1 mm 2 mps 736 mmHg 88%

    Day after tomorrow, 17 December, Sunday

    Time Temperature Precipitation Wind Pressure Humidity
    00:00 -1°C° 0.1 mm 2 mps 736 mmHg 88%
    01:00 -1°C° 0.1 mm 2 mps 736 mmHg 87%
    02:00 -1°C° 0.1 mm 2 mps 737 mmHg 88%
    03:00 -1°C° 0.1 mm 2 mps 737 mmHg 88%
    04:00 -1°C° 0.1 mm 2 mps 737 mmHg 88%
    05:00 -1°C° 0.1 mm 2 mps 737 mmHg 88%
    06:00 -1°C° 0.1 mm 2 mps 738 mmHg 88%
    07:00 -1°C° 0.1 mm 2 mps 738 mmHg 88%
    08:00 -1°C° 0.2 mm 3 mps 738 mmHg 86%
    09:00 0°C° 0.2 mm 3 mps 739 mmHg 85%
    10:00 0°C° 0.2 mm 3 mps 739 mmHg 83%
    11:00 0°C° 0.2 mm 3 mps 739 mmHg 79%
    12:00 0°C° 0.2 mm 3 mps 740 mmHg 75%
    13:00 0°C° 0.2 mm 4 mps 740 mmHg 72%
    14:00 0°C° 0.1 mm 3 mps 740 mmHg 73%
    15:00 0°C° 0.1 mm 3 mps 740 mmHg 74%
    16:00 -1°C° 0.1 mm 2 mps 741 mmHg 76%
    17:00 -1°C° 0 mm 2 mps 741 mmHg 78%
    18:00 -2°C° 0 mm 2 mps 742 mmHg 80%
    19:00 -2°C° 0 mm 2 mps 742 mmHg 82%
    20:00 -2°C° 0 mm 2 mps 742 mmHg 84%
    21:00 -2°C° 0 mm 2 mps 743 mmHg 85%
    22:00 -2°C° 0 mm 2 mps 743 mmHg 86%
    23:00 -2°C° 0 mm 2 mps 743 mmHg 86%

    18 December, Monday

    Time Temperature Precipitation Wind Pressure Humidity
    00:00 -2°C° 0 mm 2 mps 743 mmHg 85%
    01:00 -2°C° 0 mm 3 mps 743 mmHg 85%
    02:00 -2°C° 0 mm 3 mps 743 mmHg 85%
    03:00 -2°C° 0 mm 3 mps 743 mmHg 86%
    04:00 -2°C° 0 mm 3 mps 743 mmHg 86%
    05:00 -2°C° 0.1 mm 3 mps 742 mmHg 86%
    06:00 -2°C° 0.1 mm 3 mps 742 mmHg 87%
    07:00 -1°C° 0.1 mm 3 mps 742 mmHg 87%
    08:00 -1°C° 0.2 mm 3 mps 742 mmHg 86%
    09:00 -1°C° 0.2 mm 3 mps 741 mmHg 85%
    10:00 -1°C° 0.2 mm 4 mps 741 mmHg 84%
    11:00 -1°C° 0.3 mm 4 mps 740 mmHg 84%
    12:00 -1°C° 0.3 mm 4 mps 740 mmHg 84%
    13:00 -1°C° 0.3 mm 4 mps 739 mmHg 84%
    14:00 0°C° 0.2 mm 3 mps 739 mmHg 86%
    15:00 0°C° 0.2 mm 3 mps 739 mmHg 87%
    16:00 +1°C° 0.2 mm 2 mps 739 mmHg 88%
    17:00 -1°C° 0.2 mm 2 mps 740 mmHg 89%
    18:00 +1°C° 0.2 mm 1 mps 740 mmHg 91%
    19:00 +1°C° 0.2 mm 1 mps 741 mmHg 92%
    20:00 +1°C° 0.1 mm 1 mps 741 mmHg 93%
    21:00 +1°C° 0.1 mm 1 mps 742 mmHg 93%
    22:00 +1°C° 0.1 mm 1 mps 742 mmHg 94%
    23:00 +1°C° 0.1 mm 1 mps 743 mmHg 94%

    19 December, Tuesday

    Time Temperature Precipitation Wind Pressure Humidity
    00:00 +1°C° 0.1 mm 1 mps 743 mmHg 95%
    01:00 +1°C° 0.1 mm 1 mps 744 mmHg 95%
    02:00 +1°C° 0.1 mm 1 mps 744 mmHg 95%
    03:00 -2°C° 0.1 mm 2 mps 745 mmHg 95%
    04:00 -2°C° 0.1 mm 2 mps 745 mmHg 95%
    05:00 -2°C° 0 mm 2 mps 746 mmHg 95%
    06:00 -2°C° 0 mm 2 mps 747 mmHg 94%
    07:00 -2°C° 0 mm 2 mps 747 mmHg 94%
    08:00 -2°C° 0 mm 2 mps 748 mmHg 92%
    09:00 -2°C° 0 mm 2 mps 748 mmHg 90%
    10:00 -2°C° 0 mm 2 mps 749 mmHg 88%
    11:00 -1°C° 0 mm 2 mps 749 mmHg 85%
    12:00 -1°C° 0 mm 2 mps 749 mmHg 83%
    13:00 -1°C° 0 mm 2 mps 749 mmHg 80%
    14:00 -1°C° 0 mm 2 mps 750 mmHg 82%
    15:00 -2°C° 0 mm 2 mps 750 mmHg 84%
    16:00 -2°C° 0 mm 2 mps 751 mmHg 85%
    17:00 -3°C° 0 mm 2 mps 751 mmHg 87%
    18:00 -3°C° 0 mm 2 mps 751 mmHg 89%
    19:00 -3°C° 0 mm 2 mps 752 mmHg 91%
    20:00 -4°C° 0 mm 2 mps 752 mmHg 92%
    21:00 -4°C° 0 mm 2 mps 752 mmHg 92%
    22:00 -4°C° 0 mm 2 mps 752 mmHg 93%
    23:00 -2°C° 0 mm 1 mps 753 mmHg 93%

    20 December, Wednesday

    Time Temperature Precipitation Wind Pressure Humidity
    00:00 -2°C° 0 mm 1 mps 753 mmHg 93%
    01:00 -2°C° 0 mm 1 mps 753 mmHg 93%
    02:00 -3°C° 0 mm 1 mps 753 mmHg 93%
    03:00 -3°C° 0 mm 1 mps 752 mmHg 93%
    04:00 -3°C° 0 mm 1 mps 752 mmHg 92%
    05:00 -3°C° 0 mm 1 mps 752 mmHg 91%
    06:00 -3°C° 0 mm 1 mps 753 mmHg 90%
    07:00 -3°C° 0 mm 1 mps 753 mmHg 90%
    08:00 -2°C° 0 mm 1 mps 753 mmHg 86%
    09:00 -2°C° 0 mm 1 mps 753 mmHg 83%
    10:00 -1°C° 0 mm 1 mps 753 mmHg 80%
    11:00 0°C° 0 mm 1 mps 752 mmHg 77%
    12:00 -2°C° 0 mm 2 mps 752 mmHg 74%
    13:00 -1°C° 0 mm 2 mps 752 mmHg 71%
    14:00 -2°C° 0 mm 2 mps 751 mmHg 74%
    15:00 -3°C° 0 mm 2 mps 751 mmHg 77%
    16:00 -3°C° 0 mm 2 mps 751 mmHg 81%
    17:00 -3°C° 0 mm 2 mps 750 mmHg 82%
    18:00 -4°C° 0 mm 3 mps 750 mmHg 82%
    19:00 -4°C° 0 mm 3 mps 750 mmHg 83%
    20:00 -2°C° 0.3 mm 3 mps 749 mmHg 85%
    21:00 -3°C° 0.3 mm 4 mps 749 mmHg 87%
    22:00 -3°C° 0.3 mm 4 mps 748 mmHg 89%
    23:00 -2°C° 0.9 mm 4 mps 747 mmHg 90%
    Show more